Content
SEND FEEDBACK

Daily
Averages
Monthly
Summary
United States of America

DICKINSON, NORTH DAKOTA


Home > North America > United States > North Dakota
Elevation: 2589 feet     Latitude: 46 48N     Longitude: 102 48W

WEATHER
 
SELECT A DAY
Number of Records: 195,594;   Date Range: 1/1/95 - 9/18/14
 
SHARE

PRINT THIS DATA

[ ← Previous Day ]
WEATHER ALMANAC - JULY 22, 2014
[ Next Day → ]
[ °C ]   °F
Weather ElementAverageHighLow
Temperature62.3 °F80.1 °F (2:56 pm)54 °F (5:56 am)
Dewpoint58.4 °F64.9 °F (11:56 am)53.1 °F (2:40 am)
Humidity88.2 %100 % (2:06 am)52 % (4:56 pm)
Barometer30.14 in30.25 in (7:03 pm)30.06 in (1:56 am)
Wind Speed4.1 mph18.4 mph (7:44 pm)
Weather ElementAverage
Visibility5.1 mi
Wind DirectionSE (133.4 °)

Weather ElementTotal
Precipitation0.12 in
Cooling Degree Days2.1 (Base 65)
Growing Degree Days17.1 (Base 50)
Averaged from 50 records on July 22, 2014
WEATHER CONDITIONS BREAKOUT
WIND DIRECTION BREAKOUT
WEATHER BY HOUR - JULY 22, 2014
[ °C ]   °F
Local TimeTemperatureDewpointHumidityBarometerVisibilityWind DirectionWind SpeedGust SpeedPrecipitationEventsConditions
1:06 AM57.9 °F57.0 °F97 %30.08 in5.0 miWSW (250°)5.8 mphPartly Cloudy
1:56 AM59.0 °F57.0 °F93 %30.06 in8.0 miCalmScattered Clouds
2:06 AM57.0 °F57.0 °F100 %30.09 in1.5 miCalmScattered Clouds
2:15 AM57.0 °F55.9 °F96 %30.09 in0.5 miCalmFogFog
2:21 AM55.9 °F55.0 °F97 %30.08 in1.2 miCalmPartly Cloudy
2:33 AM55.9 °F54.0 °F93 %30.09 in0.8 miSSW (210°)3.5 mphMist
2:40 AM55.0 °F53.1 °F93 %30.09 in1.2 miWNW (290°)3.5 mphPartly Cloudy
2:42 AM55.9 °F54.0 °F93 %30.09 in3.0 miWNW (290°)3.5 mphPartly Cloudy
2:56 AM57.0 °F55.0 °F93 %30.06 in3.0 miWNW (290°)3.5 mphClear
2:59 AM55.9 °F55.9 °F100 %30.08 in1.5 miWNW (300°)3.5 mphClear
3:17 AM55.9 °F55.9 °F100 %30.08 in0.5 miCalmFogFog
3:29 AM57.9 °F57.0 °F97 %30.08 in1.2 miNW (310°)4.6 mphClear
3:32 AM57.9 °F57.0 °F97 %30.08 in3.0 miWNW (300°)4.6 mphClear
3:42 AM57.0 °F55.9 °F96 %30.09 in2.5 miNW (320°)6.9 mphClear
3:51 AM57.2 °F57.2 °F100 %30.09 in4.0 miNNW (330°)6.9 mphClear
3:56 AM57.9 °F57.0 °F97 %30.08 in4.0 miNW (310°)5.8 mphClear
4:00 AM55.9 °F55.0 °F97 %30.10 in1.8 miWest (260°)5.8 mphPartly Cloudy
4:03 AM55.0 °F54.0 °F96 %30.10 in0.8 miWSW (250°)6.9 mphMist
4:13 AM55.9 °F55.0 °F97 %30.11 in0.2 miWest (270°)3.5 mphFogFog
4:33 AM55.9 °F55.0 °F97 %30.11 in0.2 miCalmFogFog
4:56 AM55.0 °F54.0 °F96 %30.11 in0.2 miCalmFogFog
5:29 AM55.9 °F55.0 °F97 %30.13 in1.0 miNW (310°)3.5 mphMist
5:36 AM55.9 °F55.0 °F97 %30.14 in0.2 miWest (260°)3.5 mphFogFog
5:56 AM54.0 °F53.1 °F97 %30.12 in0.2 miCalmFogFog
6:30 AM57.9 °F55.9 °F93 %30.16 in1.0 miCalmMist
6:33 AM57.9 °F57.0 °F97 %30.16 in2.0 miCalmPartly Cloudy
6:43 AM59.0 °F57.9 °F96 %30.16 in3.0 miCalmPartly Cloudy
6:56 AM60.1 °F59.0 °F96 %30.14 in4.0 miCalmClear
7:18 AM60.1 °F59.0 °F96 %30.17 in4.0 miCalmPartly Cloudy
7:56 AM63.0 °F61.0 °F93 %30.15 in9.0 miCalmClear
8:37 AM66.0 °F62.1 °F87 %30.19 in8.0 miEast (80°)6.9 mphScattered Clouds
8:56 AM66.9 °F62.1 °F84 %30.17 in9.0 miEast (80°)4.6 mphScattered Clouds
9:03 AM66.9 °F63.0 °F87 %30.20 in8.0 miEast (80°)6.9 mphMostly Cloudy
9:32 AM68.0 °F63.0 °F84 %30.20 in9.0 miVariable3.5 mphScattered Clouds
9:56 AM70.0 °F63.0 °F78 %30.17 in10.0 miESE (110°)3.5 mphPartly Cloudy
11:56 AM75.9 °F64.9 °F69 %30.18 in10.0 miEast (100°)6.9 mphPartly Cloudy
12:56 PM75.9 °F64.9 °F69 %30.18 in10.0 miEast (100°)10.4 mphPartly Cloudy
1:56 PM78.1 °F64.0 °F62 %30.17 in10.0 miESE (110°)6.9 mphClear
2:56 PM80.1 °F63.0 °F56 %30.17 in10.0 miESE (110°)6.9 mphClear
4:56 PM78.1 °F59.0 °F52 %30.17 in10.0 miESE (110°)6.9 mphClear
5:56 PM75.0 °F62.1 °F64 %30.18 in10.0 miEast (100°)6.9 mphClear
6:56 PM70.0 °F63.0 °F78 %30.24 in8.0 miCalm0.00 inRainLight Rain
7:03 PM71.1 °F63.0 °F75 %30.25 in6.0 miSouth (170°)8.1 mph0.01 inRain-ThunderstormLight Rain
7:18 PM69.1 °F64.9 °F87 %30.24 in7.0 miSouth (180°)6.9 mph0.03 inRainLight Rain
7:44 PM69.1 °F60.1 °F73 %30.12 in10.0 miEast (100°)18.4 mph0.04 inRainLight Rain
7:56 PM69.1 °F59.0 °F70 %30.15 in10.0 miSE (130°)4.6 mph0.04 inPartly Cloudy
8:56 PM64.9 °F60.1 °F84 %30.19 in10.0 miSSE (160°)5.8 mphClear
9:56 PM63.0 °F59.0 °F87 %30.21 in10.0 miSSE (160°)6.9 mphClear
10:56 PM63.0 °F59.0 °F87 %30.22 in10.0 miSE (140°)5.8 mphClear
11:56 PM63.0 °F60.1 °F90 %30.22 in10.0 miEast (100°)3.5 mphClear
Hourly data recorded from KDIK, located miles away from Dickinson, North Dakota







STORIES FROM OUR PARTNERS